Location: Home
(42.5358°N, 72.7383°W)
Time: 20:37:23
(UTC-05:00)

Vanguard 2 Rocket - Pass Details

Date: 30 November 2021
Orbit: 554 x 3325 km, 32.9° (Epoch: 21 January)

Event Time Altitude Azimuth Distance (km) Brightness Sun altitude
Rises 02:11:34 0° 272° (W) 6,297 - -52.1°
Reaches altitude 10° 02:17:22 10° 257° (WSW) 5,691 - -51.1°
Maximum altitude 02:28:02 19° 221° (SW) 5,415 - -49.3°
Exits shadow 02:37:53 12° 189° (S) 6,059 10.8 -47.5°
Drops below altitude 10° 02:39:47 10° 184° (S) 6,255 11.0 -47.2°
Sets 02:46:55 0° 169° (S) 7,112 11.4 -45.9°
